{"data":{"norad_id":56326,"intl_designator":"2023-058K","name":"STARLINK-5980","alt_names":[],"object_type":"PAYLOAD","status":"ACTIVE","operator":null,"country":"US","launch_date":"2023-04-27","launch_site_code":"AFWTR","launch_vehicle":null,"mission":null,"orbit_class":"UNKNOWN","rcs_meters":null,"size_class":null,"mass_kg":null,"dimensions":null,"purposes":["comms"],"wikipedia_slug":null,"has_3d_model":false,"image_url":null,"decayed_at":null,"tle_current":{"epoch":"2026-05-25T00:13:28.284096Z","epoch_age_seconds":70275,"freshness":"FRESH","line1":"1 56326U 23058K   26145.00935514 -.00001686  00000+0 -11276-3 0  9997","line2":"2 56326  97.4483 144.9051 0003326  94.8387 265.3220 15.05655843169251","mean_motion":15.05655843,"eccentricity":0.0003326,"inclination_deg":97.4483,"raan_deg":144.9051,"arg_perigee_deg":94.8387,"mean_anomaly_deg":265.322,"bstar":-0.00011276,"rev_number":16925,"period_min":95.639385766326,"perigee_km":547.18910145893,"apogee_km":551.79736108878,"semimajor_km":6927.6302312739,"source":"CELESTRAK","updated_at":"2026-05-25T13:38:18.001535Z"}}}